Weather Roundup
Issued by NWS Chicago, IL

Home | Current Version | Previous Version | Graphics & Text | Print | Product List | Glossary On
Versions: 1 2 3 4 5 6 7 8 9 10 11 12 13 14 15 16 17 18 19 20 21 22 23 24 25 26 27 28 29 30 31 32 33 34 35 36 37 38 39 40 41 42 43 44 45 46 47 48 49 50
000
NZUS59 KLOT 301508
HRRLOT

CHICAGO AREA WEATHER ROUNDUP
NATIONAL WEATHER SERVICE CHICAGO/ROMEOVILLE IL
1000 AM CDT TUE JUN 30 2015

NOTE: "FAIR" INDICATES FEW OR NO CLOUDS BELOW 12,000 FEET WITH NO
SIGNIFICANT WEATHER AND/OR OBSTRUCTIONS TO VISIBILITY.

* THESE STATIONS ARE NOT UNDER NWS QUALITY CONTROL. THEY ALSO MAY NOT
  REPORT WEATHER SUCH AS PRECIPITATION OR FOG.

ILZ005-006-012>014-019>023-301600-
NORTHEAST ILLINOIS

CITY           SKY/WX    TMP DP  RH WIND       PRES   REMARKS
OHARE          MOSUNNY   69  60  73 W7        29.81F
MIDWAY         SUNNY     72  60  66 NW9       29.81F
AURORA         SUNNY     69  61  75 W8        29.84S
LANSING*       SUNNY     71  59  65 NW6       29.82F
JOLIET*        SUNNY     71  63  77 W7        29.83F
WAUKEGAN       MOSUNNY   69  60  73 VRB6      29.80F
DUPAGE AIRPORT SUNNY     69  61  75 NW9       29.83S
WHEELING       SUNNY     71  60  68 W9        29.82F
KANKAKEE*      SUNNY     71  63  77 W8        29.84S
MORRIS*        SUNNY     70  63  80 W7        29.83S
LEWIS AIRPORT* SUNNY     69  62  78 NW6       29.83S
NORTHERLY IS     N/A     70  58  65 W7          N/A
$$

WIZ051-052-058>065-066-070>072-301600-
SOUTHEAST WISCONSIN

CITY           SKY/WX    TMP DP  RH WIND       PRES   REMARKS
MILWAUKEE      PTSUNNY   69  59  70 NW8       29.80F
KENOSHA*       CLOUDY    67  59  75 NW12      29.82S
RACINE*        MOSUNNY   67  58  72 NW8       29.82F
BURLINGTON     CLOUDY    62  58  88 NW8       29.83S
WEST BEND      CLOUDY    66  59  77 NW9       29.82S
$$

INZ001>003-010>013-019-020-301600-
NORTHWEST INDIANA

CITY           SKY/WX    TMP DP  RH WIND       PRES   REMARKS
GARY*          SUNNY     72  63  73 W9        29.82F
MICHIGAN CITY* NOT AVBL
RENSSELAER*    NOT AVBL
VALPARAISO     PTSUNNY   70  63  78 NW8       29.82F
$$

LMZ740>746-301600-
SOUTHERN LAKE MICHIGAN

STATION/POSITION TIME  SKY/WX   TEMP WIND        PRES    VSBY
                                AIR  DIR/SP/G
                 (UTC)          (F)  (DEG/KT/KT) (MB)    (MI)
HARRISON CRIB    1400            66  290/  6/  7   N/A
BURNHAM HARBOR   1500            71  310/  7/  9   N/A
CALUMET HARBOR   1400            70  300/  4/  7   N/A
BURNS HARBOR     1400            65  260/  6/  8 1010.5R
MICHIGAN CITY    1400            63  250/  9/ 10   N/A
$$

ABBREVIATIONS USED IN REMARKS
   TC - TEMPERATURE IN CELSIUS
  WCI - WIND CHILL INDEX
   HX - HEAT INDEX
  VSB - VISIBILITY
$$



USA.gov is the U.S. government's official web portal to all federal, state and local government web resources and services.